Hourly Data Report for January 16, 2022

QUALICUM BEACH AIRPORT
BRITISH COLUMBIA
Current Station Operator: ECCC - MSC

49°20'14.000" N
124°23'38.000" W
58.20 m
1026562
71766
VOQ

Download Data

Hourly Data (January 2022)
Hourly Data Report for January 16, 2022
TIME
LST
Temp Definition
°C
Dew Point Definition
°C
Rel Hum Definition
%
Precip. Amount Definition
mm

Wind Dir Definition
10's deg

Wind Spd Definition
km/h
Visibility Definition
km
Stn Press Definition
kPa
Hmdx Definition


Wind Chill Definition


Weather Definition


00:00 5.4 5.3 99 0.0   0   102.10     LegendNANA
01:00 5.5 5.3 99 0.0 30 3   102.04     LegendNANA
02:00 5.5 5.2 98 0.0 28 3   102.01     LegendNANA
03:00 5.4 5.1 98 0.0 28 4   102.01     LegendNANA
04:00 5.2 5.0 98 0.0 25 3   101.93     LegendNANA
05:00 5.1 4.9 98 0.0 29 3   101.91     LegendNANA
06:00 5.1 4.8 98 0.0 19 2   101.84     LegendNANA
07:00 5.1 4.9 99 0.0 0 1   101.82     LegendNANA
08:00 5.0 4.8 99 0.0   0   101.76     LegendNANA
09:00 5.1 5.0 99 0.0 0 1   101.71     LegendNANA
10:00 5.5 5.3 99 0.0 7 4   101.68     LegendNANA
11:00 6.0 5.4 96 0.0 10 6   101.69     LegendNANA
12:00 5.9 5.4 97 0.0 10 5   101.61     LegendNANA
13:00 6.0 5.4 96 0.0 9 6   101.57     LegendNANA
14:00 6.2 5.4 94 0.0 10 6   101.50     LegendNANA
15:00 6.0 5.4 96 0.0 11 9   101.49     LegendNANA
16:00 6.1 5.2 94 0.0 11 7   101.44     LegendNANA
17:00 5.9 5.1 95 0.0 7 3   101.48     LegendNANA
18:00 5.5 5.1 97 0.0 14 8   101.37     LegendNANA
19:00 5.2 4.9 98 0.0 4 3   101.31     LegendNANA
20:00 5.4 5.0 97 0.0 12 6   101.25     LegendNANA
21:00 5.3 4.7 96 0.0 12 2   101.26     LegendNANA
22:00 4.8 4.2 96 0.0 19 1   101.20     LegendNANA
23:00 3.7 3.5 99 0.0 15 3   101.19     LegendNANA

Notes on Data Quality.

Legend

  • E = Estimated
  • M = Missing
  • NA = Not Available*
  • [empty] = Indicates an unobserved value
Date modified: